{"data":{"norad_id":81969,"intl_designator":"","name":"UNKNOWN","alt_names":[],"object_type":"UNKNOWN","status":"UNKNOWN","operator":null,"country":null,"launch_date":null,"launch_site_code":null,"launch_vehicle":null,"mission":null,"orbit_class":"UNKNOWN","rcs_meters":null,"size_class":null,"mass_kg":null,"dimensions":null,"purposes":[],"wikipedia_slug":null,"has_3d_model":false,"image_url":null,"decayed_at":null,"tle_current":{"epoch":"2026-09-17T15:20:10.690368Z","epoch_age_seconds":262303,"freshness":"STALE","line1":"1 81969U          26260.63901262  .00009474  00000+0  48286-3 0  9992","line2":"2 81969  86.6834  31.6569 0003416 188.7816 171.3367 15.16635797482375","mean_motion":15.16635797,"eccentricity":0.0003416,"inclination_deg":86.6834,"raan_deg":31.6569,"arg_perigee_deg":188.7816,"mean_anomaly_deg":171.3367,"bstar":0.00048286,"rev_number":48237,"period_min":94.946987460563,"perigee_km":513.66184148052,"apogee_km":518.37192741438,"semimajor_km":6894.1538844475,"source":"CELESTRAK","updated_at":"2026-09-20T09:00:32.429224Z"}}}